Regional Weather Roundup
Issued by NWS

Home | Current Version | Previous Version | Graphics & Text | Print | Product List | Glossary On
Versions: 1 2 3 4 5 6 7 8 9 10 11 12 13 14 15 16 17 18 19 20 21 22 23 24 25 26 27 28 29 30 31 32 33 34 35 36 37 38 39 40 41 42 43 44 45 46 47 48 49 50
625
ASUS44 KJAN 010003
RWRMS

MISSISSIPPI HOURLY WEATHER ROUNDUP
NATIONAL WEATHER SERVICE JACKSON MS
700 PM CDT SUN AUG 31 2014

NOTE: "FAIR: INDICATES FEW OR NO CLOUDS BELOW 12,000 FEET WITH NO
SIGNIFICANT WEATHER AND/OR OBSTRUCTIONS TO VISIBILITY.

MSZ001>002-007>008-010>013-018>021-025>028-034>036-010100-
NORTHWEST MISSISSIPPI

CITY           SKY/WX    TMP DP  RH WIND       PRES   REMARKS
CLARKSDALE     FAIR      81  73  78 S5        30.02S
CLEVELAND      FAIR      83  77  84 CALM      30.00F HX  91
GREENWOOD      MOCLDY    82  76  81 S6        30.02F
6HR MIN TEMP:  81; 6HR MAX TEMP:  86;

GREENVILLE     MOCLDY    84  76  76 S7        30.00F HX  93
6HR MIN TEMP:  76; 6HR MAX TEMP:  89; 6HR PCP:  0.21;

GRENADA        FAIR      81  73  78 S3        30.03S
OXFORD         FAIR      81  72  74 S5        30.04F
TUNICA         CLEAR     81  73  78 S10       30.01S
$$

MSZ003>006-009-014>017-022>024-029>033-037>039-010100-
NORTHEAST MISSISSIPPI

CITY           SKY/WX    TMP DP  RH WIND       PRES   REMARKS
BELMONT        FAIR      80  75  83 S5        30.05F
COLUMBUS AFB   CLOUDY    82  75  78 S6        30.05S
6HR MIN TEMP:  82; 6HR MAX TEMP:  86; 6HR PCP: TRACE;

CORINTH        FAIR      81  72  74 S8        30.02F
GOLDN TRIANGLE CLEAR     82  73  74 S5        30.05S
STARKVILLE     FAIR      79  77  94 CALM      30.04F
TUPELO         MOCLDY    83  73  72 SW9       30.03F
6HR MIN TEMP:  82; 6HR MAX TEMP:  85;

$$

MSZ040-058-010100-
CENTRAL MISSISSIPPI

CITY           SKY/WX    TMP DP  RH WIND       PRES   REMARKS
JACKSON INTL   CLOUDY    83  77  82 SE3       30.04S HX  92
6HR MIN TEMP:  83; 6HR MAX TEMP:  86;

JACKSON HAWKNS CLOUDY    83  75  77 SE3       30.04S HX  90
6HR MIN TEMP:  83; 6HR MAX TEMP:  87;

MERIDIAN KEY   MOCLDY    86  73  65 CALM      30.05R HX  93
6HR MIN TEMP:  85; 6HR MAX TEMP:  93;

MERIDIAN NAS   MOCLDY    84  74  71 CALM      30.05S HX  91
6HR MIN TEMP:  84; 6HR MAX TEMP:  92;

RAYMOND        FAIR      84  79  84 CALM      30.03F HX  96
VICKSBURG      MOCLDY    82  76  81 S5        30.02S
6HR MIN TEMP:  82; 6HR MAX TEMP:  88;

$$

MSZ059>079-010100-
SOUTH MISSISSIPPI

CITY           SKY/WX    TMP DP  RH WIND       PRES   REMARKS
BROOKHAVEN     FAIR      82  79  89 CALM      30.06S HX  93
HATTIESBURG    MOCLDY    89  70  53 S7        30.05R HX  94
6HR MIN TEMP:  89; 6HR MAX TEMP:  96;

MCCOMB         PTCLDY    83  71  67 S3        30.05R
6HR MIN TEMP:  81; 6HR MAX TEMP:  91;

NATCHEZ        MOCLDY    82  75  78 SE3       30.03S
6HR MIN TEMP:  82; 6HR MAX TEMP:  88;

PINE BELT      MOCLDY    86  68  54 S5        30.07R
6HR MIN TEMP:  86; 6HR MAX TEMP:  93;

$$

MSZ080>082-010100-
COASTAL MISSISSIPPI

CITY           SKY/WX    TMP DP  RH WIND       PRES   REMARKS
BAY ST LOUIS   PTCLDY   N/A N/A N/A SE6       30.05S
BILOXI         PTCLDY    85  76  72 S7        30.06R HX  95
6HR MIN TEMP:  85; 6HR MAX TEMP:  90;

PASCAGOULA     CLEAR     84  76  76 SE6       30.05S HX  93
6HR MIN TEMP:  84; 6HR MAX TEMP:  92;

GULFPORT       PTCLDY    86  76  71 SE10      30.05R HX  96
6HR MIN TEMP:  85; 6HR MAX TEMP:  90;

$$



USA.gov is the U.S. government's official web portal to all federal, state and local government web resources and services.